When you browse on this site, cookies collect data to enhance your experience and personalize the content and advertising you see.
Visit our Privacy Policy to learn more. By continuing to use the site, you agree to this use of cookies and data.
  • In Romania
  • List of Countries
  • For 7 days
  • Water Temperature
  • Weather Map
  • Weather Widgets
  • user-avatar
    Login

    Hourly Weather Gisborne

    Today, 4 June, Thursday

    Time Temperature Precipitation Wind Pressure Humidity
    00:00 +13°C° 0 mm 3 mps 751 mmHg 86%
    01:00 +13°C° 0 mm 3 mps 751 mmHg 87%
    02:00 +13°C° 0 mm 3 mps 751 mmHg 88%
    03:00 +15°C° 0 mm 2 mps 750 mmHg 90%
    04:00 +13°C° 0 mm 3 mps 750 mmHg 89%
    05:00 +13°C° 0 mm 3 mps 750 mmHg 89%
    06:00 +13°C° 0 mm 3 mps 750 mmHg 91%
    07:00 +14°C° 0 mm 3 mps 751 mmHg 87%
    08:00 +16°C° 0 mm 3 mps 751 mmHg 83%
    09:00 +17°C° 0 mm 2 mps 752 mmHg 79%
    10:00 +18°C° 0 mm 3 mps 752 mmHg 71%
    11:00 +19°C° 0 mm 4 mps 752 mmHg 64%
    12:00 +20°C° 0 mm 4 mps 751 mmHg 56%
    13:00 +20°C° 0 mm 4 mps 751 mmHg 57%
    14:00 +20°C° 0 mm 4 mps 751 mmHg 59%
    15:00 +20°C° 0 mm 4 mps 750 mmHg 61%
    16:00 +18°C° 0 mm 3 mps 750 mmHg 69%
    17:00 +17°C° 0 mm 3 mps 750 mmHg 78%
    18:00 +14°C° 0 mm 3 mps 750 mmHg 86%
    19:00 +13°C° 0 mm 3 mps 751 mmHg 89%
    20:00 +13°C° 0 mm 3 mps 751 mmHg 92%
    21:00 +13°C° 0 mm 2 mps 751 mmHg 95%
    22:00 +13°C° 0 mm 2 mps 751 mmHg 94%
    23:00 +13°C° 0 mm 2 mps 751 mmHg 92%

    Tomorrow, 5 June, Friday

    Time Temperature Precipitation Wind Pressure Humidity
    00:00 +13°C° 0 mm 2 mps 750 mmHg 92%
    01:00 +12°C° 0 mm 2 mps 750 mmHg 93%
    02:00 +12°C° 0 mm 2 mps 750 mmHg 93%
    03:00 +12°C° 0 mm 2 mps 750 mmHg 94%
    04:00 +12°C° 0 mm 2 mps 750 mmHg 94%
    05:00 +12°C° 0 mm 2 mps 750 mmHg 93%
    06:00 +10°C° 0 mm 2 mps 750 mmHg 93%
    07:00 +12°C° 0 mm 2 mps 750 mmHg 89%
    08:00 +13°C° 0 mm 2 mps 751 mmHg 85%
    09:00 +13°C° 0 mm 3 mps 751 mmHg 81%
    10:00 +14°C° 0 mm 3 mps 751 mmHg 73%
    11:00 +16°C° 0 mm 2 mps 751 mmHg 66%
    12:00 +18°C° 0 mm 2 mps 751 mmHg 59%
    13:00 +17°C° 0.1 mm 3 mps 750 mmHg 66%
    14:00 +16°C° 0.1 mm 3 mps 750 mmHg 73%
    15:00 +14°C° 0.1 mm 4 mps 750 mmHg 81%
    16:00 +13°C° 0 mm 4 mps 750 mmHg 84%
    17:00 +12°C° 0 mm 4 mps 750 mmHg 88%
    18:00 +12°C° 0 mm 3 mps 750 mmHg 92%
    19:00 +11°C° 0.1 mm 3 mps 750 mmHg 92%
    20:00 +12°C° 0.1 mm 2 mps 751 mmHg 93%
    21:00 +12°C° 0.1 mm 2 mps 751 mmHg 94%
    22:00 +12°C° 0.1 mm 2 mps 751 mmHg 95%
    23:00 +10°C° 0.1 mm 2 mps 751 mmHg 96%

    Day after tomorrow, 6 June, Saturday

    Time Temperature Precipitation Wind Pressure Humidity
    00:00 +10°C° 0.1 mm 2 mps 751 mmHg 97%
    01:00 +10°C° 0.1 mm 2 mps 751 mmHg 97%
    02:00 +10°C° 0.1 mm 2 mps 751 mmHg 96%
    03:00 +11°C° 0.1 mm 1 mps 751 mmHg 96%
    04:00 +10°C° 0 mm 1 mps 751 mmHg 96%
    05:00 +10°C° 0 mm 1 mps 751 mmHg 97%
    06:00 +10°C° 0 mm 1 mps 751 mmHg 97%
    07:00 +10°C° 0 mm 1 mps 751 mmHg 95%
    08:00 +11°C° 0 mm 1 mps 751 mmHg 93%
    09:00 +11°C° 0 mm 1 mps 752 mmHg 91%
    10:00 +13°C° 0 mm 2 mps 752 mmHg 81%
    11:00 +15°C° 0 mm 2 mps 751 mmHg 70%
    12:00 +16°C° 0 mm 2 mps 751 mmHg 60%
    13:00 +16°C° 0 mm 2 mps 751 mmHg 60%
    14:00 +16°C° 0 mm 2 mps 751 mmHg 59%
    15:00 +16°C° 0 mm 2 mps 751 mmHg 58%
    16:00 +15°C° 0 mm 2 mps 751 mmHg 66%
    17:00 +13°C° 0 mm 2 mps 751 mmHg 73%
    18:00 +11°C° 0 mm 1 mps 752 mmHg 80%
    19:00 +10°C° 0 mm 2 mps 752 mmHg 81%
    20:00 +10°C° 0 mm 2 mps 752 mmHg 83%
    21:00 +9°C° 0 mm 2 mps 753 mmHg 84%
    22:00 +9°C° 0 mm 3 mps 753 mmHg 83%
    23:00 +10°C° 0 mm 3 mps 753 mmHg 82%

    7 June, Sunday

    Time Temperature Precipitation Wind Pressure Humidity
    00:00 +10°C° 0 mm 3 mps 754 mmHg 81%
    01:00 +10°C° 0 mm 3 mps 754 mmHg 82%
    02:00 +10°C° 0 mm 3 mps 754 mmHg 83%
    03:00 +10°C° 0 mm 3 mps 754 mmHg 84%
    04:00 +9°C° 0.1 mm 3 mps 754 mmHg 88%
    05:00 +9°C° 0.1 mm 3 mps 755 mmHg 91%
    06:00 +8°C° 0.1 mm 3 mps 755 mmHg 95%
    07:00 +9°C° 0.1 mm 3 mps 755 mmHg 92%
    08:00 +9°C° 0.1 mm 3 mps 756 mmHg 90%
    09:00 +10°C° 0.1 mm 2 mps 757 mmHg 87%
    10:00 +11°C° 0 mm 3 mps 757 mmHg 78%
    11:00 +12°C° 0 mm 3 mps 757 mmHg 69%
    12:00 +14°C° 0 mm 3 mps 757 mmHg 60%
    13:00 +14°C° 0 mm 3 mps 757 mmHg 61%
    14:00 +14°C° 0 mm 2 mps 757 mmHg 61%
    15:00 +14°C° 0 mm 2 mps 756 mmHg 62%
    16:00 +12°C° 0 mm 2 mps 757 mmHg 72%
    17:00 +10°C° 0 mm 1 mps 757 mmHg 83%
    18:00 +8°C° 0 mm 0 mps 758 mmHg 93%
    19:00 +8°C° 0 mm 1 mps 758 mmHg 94%
    20:00 +8°C° 0 mm 1 mps 758 mmHg 95%
    21:00 +8°C° 0 mm 1 mps 759 mmHg 95%
    22:00 +7°C° 0 mm 1 mps 759 mmHg 95%
    23:00 +7°C° 0 mm 1 mps 759 mmHg 95%

    8 June, Monday

    Time Temperature Precipitation Wind Pressure Humidity
    00:00 +6°C° 0 mm 2 mps 760 mmHg 95%
    01:00 +5°C° 0 mm 2 mps 760 mmHg 95%
    02:00 +5°C° 0 mm 2 mps 760 mmHg 94%
    03:00 +5°C° 0 mm 2 mps 760 mmHg 94%
    04:00 +5°C° 0 mm 2 mps 760 mmHg 92%
    05:00 +4°C° 0 mm 2 mps 760 mmHg 91%
    06:00 +4°C° 0 mm 2 mps 760 mmHg 90%
    07:00 +5°C° 0 mm 2 mps 761 mmHg 85%
    08:00 +7°C° 0 mm 2 mps 761 mmHg 79%
    09:00 +8°C° 0 mm 2 mps 761 mmHg 74%
    10:00 +11°C° 0 mm 1 mps 761 mmHg 64%
    11:00 +13°C° 0 mm 1 mps 761 mmHg 55%
    12:00 +15°C° 0 mm 1 mps 761 mmHg 45%
    13:00 +15°C° 0 mm 1 mps 761 mmHg 47%
    14:00 +15°C° 0 mm 1 mps 761 mmHg 48%
    15:00 +15°C° 0 mm 1 mps 760 mmHg 49%
    16:00 +13°C° 0 mm 2 mps 761 mmHg 59%
    17:00 +10°C° 0 mm 2 mps 761 mmHg 68%
    18:00 +8°C° 0 mm 2 mps 761 mmHg 78%
    19:00 +7°C° 0 mm 2 mps 762 mmHg 79%
    20:00 +7°C° 0 mm 2 mps 762 mmHg 80%
    21:00 +7°C° 0 mm 2 mps 762 mmHg 82%
    22:00 +7°C° 0 mm 2 mps 762 mmHg 83%
    23:00 +6°C° 0 mm 2 mps 762 mmHg 84%

    9 June, Tuesday

    Time Temperature Precipitation Wind Pressure Humidity
    00:00 +6°C° 0 mm 2 mps 762 mmHg 85%
    01:00 +6°C° 0 mm 2 mps 762 mmHg 86%
    02:00 +6°C° 0 mm 2 mps 762 mmHg 88%
    03:00 +6°C° 0 mm 2 mps 762 mmHg 89%
    04:00 +6°C° 0 mm 2 mps 762 mmHg 89%
    05:00 +5°C° 0 mm 2 mps 762 mmHg 89%
    06:00 +5°C° 0 mm 2 mps 762 mmHg 90%
    07:00 +6°C° 0 mm 2 mps 763 mmHg 85%
    08:00 +7°C° 0 mm 2 mps 763 mmHg 80%
    09:00 +8°C° 0 mm 2 mps 763 mmHg 75%
    10:00 +11°C° 0 mm 1 mps 763 mmHg 66%
    11:00 +14°C° 0 mm 1 mps 763 mmHg 57%
    12:00 +16°C° 0 mm 1 mps 763 mmHg 48%
    13:00 +15°C° 0 mm 1 mps 763 mmHg 50%
    14:00 +15°C° 0 mm 1 mps 762 mmHg 51%
    15:00 +15°C° 0 mm 2 mps 762 mmHg 53%
    16:00 +13°C° 0 mm 1 mps 763 mmHg 64%
    17:00 +11°C° 0 mm 1 mps 763 mmHg 75%
    18:00 +8°C° 0 mm 1 mps 763 mmHg 86%
    19:00 +8°C° 0 mm 1 mps 764 mmHg 87%
    20:00 +8°C° 0 mm 1 mps 764 mmHg 87%
    21:00 +7°C° 0 mm 2 mps 764 mmHg 88%
    22:00 +6°C° 0 mm 2 mps 765 mmHg 88%
    23:00 +6°C° 0 mm 2 mps 765 mmHg 88%
    Show more